This demonstration page uses our WeatherBlox Daily Observations layout. Learn more.

Left ArrowRight Arrow

30.21309, -93.2044

Hourly Observations for July 2, 2019

Temp ( °F °C ) Dew Point ( °F °C ) Humidity (%) Winds ( mph kmh ) Pressure ( in mb ) Visibility ( mi km ) Precip ( " mm )
12:15 am 00:15 Clear 76 24.7 74 23.1 91 91 SE 3 6 30.02 1017 10 16 0.00 0.00
12:35 am 00:35 Clear 76 24.2 74 23.1 94 94 SE 3 6 30.02 1017 10 16 0.00 0.00
12:55 am 00:55 Clear 76 24.6 74 23.3 93 93 Calm 30.02 1017 10 16 0.00 0.00
1:15 am 01:15 Clear 76 24.5 74 23.2 92 92 Calm 30.02 1017 10 16 0.00 0.00
1:35 am 01:35 Clear 76 24.5 74 23.4 94 94 Calm 30.02 1017 10 16 0.00 0.00
1:55 am 01:55 Clear 75 24.1 74 23.2 95 95 Calm 30.02 1017 10 16 0.00 0.00
2:15 am 02:15 Clear 75 23.7 74 23.1 96 96 Calm 30.02 1017 10 16 0.00 0.00
2:35 am 02:35 Clear 75 23.7 74 23.1 96 96 Calm 30.01 1016 10 16 0.00 0.00
2:55 am 02:55 Clear 74 23.6 73 22.9 96 96 Calm 30.01 1016 10 16 0.00 0.00
3:15 am 03:15 Clear 74 23.5 73 23 97 97 Calm 30.01 1016 10 16 0.00 0.00
3:35 am 03:35 Clear 74 23.2 73 22.9 98 98 Calm 30.01 1016 10 16 0.00 0.00
3:55 am 03:55 Clear 74 23.4 74 23.1 98 98 Calm 30.01 1016 10 16 0.00 0.00
4:15 am 04:15 Clear 75 23.8 74 23.2 96 96 Calm 30.01 1016 10 16 0.00 0.00
4:35 am 04:35 Partly Cloudy 74 23.6 73 23 96 96 Calm 30.02 1017 10 16 0.00 0.00
4:55 am 04:55 Mostly Cloudy 75 23.7 74 23.3 98 98 NE 3 6 30.02 1017 10 16 0.00 0.00
5:15 am 05:15 Mostly Cloudy 75 24.1 74 23.4 96 96 Calm 30.03 1017 10 16 0.00 0.00
5:35 am 05:35 Partly Cloudy 76 24.2 74 23.3 95 95 Calm 30.03 1017 10 16 0.00 0.00
6:00 am 06:00 Mostly Clear 75 24 73 23 94 94 Calm 30.03 1017 10 16 0.00 0.00
6:47 am 06:47 Mostly Cloudy 75 24 73 23 94 94 E 5 7 30.04 1017 10 16 0.00 0.00
7:47 am 07:47 Mostly Sunny 77 25 75 24 94 94 Calm 30.05 1018 10 16 0.00 0.00
8:53 am 08:53 Mostly Sunny 84 29 77 25 79 79 Calm 30.06 1018 10 16 0.00 0.00
9:55 am 09:55 Partly Cloudy 86 30 75 24 70 70 ESE 3 6 30.05 1018 10 16 0.00 0.00
10:55 am 10:55 Partly Cloudy 86 30 75 24 70 70 Calm 30.06 1018 10 16 0.00 0.00
11:45 am 11:45 Mostly Cloudy 88 31 73 23 62 62 Calm 30.02 1017 10 16 0.00 0.00
1:55 pm 13:55 Cloudy with Thunderstorms 77 25 75 24 94 94 S 12 19 30.04 1017 1 2 0.00 0.00
2:50 pm 14:50 Cloudy 72 22 70 21 94 94 ESE 7 11 30.01 1016 10 16 0.00 0.00
4:55 pm 16:55 Mostly Sunny 77 25 72 22 83 83 SSE 5 7 29.97 1015 10 16 0.00 0.00
5:50 pm 17:50 Partly Cloudy 81 27 75 24 84 84 ESE 7 11 29.98 1015 10 16 0.00 0.00
6:50 pm 18:50 Partly Cloudy 81 27 77 25 89 89 ESE 7 11 30.00 1016 10 16 0.00 0.00
7:50 pm 19:50 Partly Cloudy 79 26 77 25 94 94 ESE 8 13 29.98 1015 10 16 0.00 0.00
8:55 pm 20:55 Mostly Clear 79 26 75 24 89 89 ESE 7 11 29.97 1015 10 16 0.00 0.00
9:55 pm 21:55 Partly Cloudy 79 26 75 24 89 89 SSW 5 7 29.99 1016 10 16 0.00 0.00
10:15 pm 22:15 Partly Cloudy 79 26.1 75 23.7 87 87 SW 3 6 29.99 1016 10 16 0.00 0.00
10:35 pm 22:35 Mostly Cloudy 78 25.4 75 24 92 92 SE 3 6 29.98 1015 10 16 0.00 0.00
10:55 pm 22:55 Partly Cloudy 77 25 75 24 94 94 Calm 29.97 1015 10 16 0.01 0.25
11:15 pm 23:15 Clear 77 24.8 75 23.7 94 94 N 3 6 29.97 1015 10 16 0.00 0.00
11:35 pm 23:35 Clear 77 24.8 75 23.9 95 95 Calm 29.96 1015 10 16 0.00 0.00
11:55 pm 23:55 Clear 76 24.6 75 23.8 95 95 Calm 29.96 1015 10 16 0.00 0.00

Powered by AerisWeather